Погода в Амге

Погода в Амге : погода сейчас, прогноз погоды и архив. Всё, что Вы хотите узнать о погоде в Амге!

Хотите узнать прогноз погоды в Амге? Тогда Вам сюда: Погода в Амге

Поиск расширенной информации на нашем сайте:

Другие новости

Новости СМИ2

Главная страница сайта

Новости сайта

03.07.2017

Напоминаем, что на нашем специализированном сайте Метеоцентр.Азия вы можете получить высокодетализированные автоматические прогнозы погоды по пунктам России, СНГ и мира в авиационном формате (включающие направление и скорость ветра, видимость, явления погоды, количество и форму облачности, нижнюю и верхнюю границу облачности).

Рекомендуем: Кофе с собой тишинка территория кофе.

Погода в Амге - сегодня

Время (UTC), дата Ветер
(°,м/с) 
Видим.   Явления Облачность Т
(°С)
Тd
(°С)
f(%) Тe
(°С)
Pmin
(гПа)
dP
(гПа)
Po
(мм)
O2
(г/м3)
Тmin Tmax R s Состояние
почвы
18 20.07.17 тихо ()   20000 м    ясно 
+9.1 +5.1 76 +9  1005.7  1.6  741  288           
21 20.07.17 090 (В) 20000 м    ясно 
+11.4 +4.3 62 +12  1006.8  1.3  742  286           
00 21.07.17 270 (З) 20000 м    3/0 верхняя 
[Ci fib]
+14.5 +4.4 51 +14  1007.1  0.4  742  283  +7.8        сухая 
03 21.07.17 270 (З) 20000 м    1/1 1000 м 
[Cu hum]
+18.3 +4.2 39 +18  1007  0.1  742  280           
06 21.07.17 270 (З) 20000 м    3/3 1000 м 
[Cu hum]
+20.6 +2.4 30 +21  1006.6  -0.2  742  278           
09 21.07.17 320 (СЗ) 20000 м    4/4 1000 м 
[Sc diur, vesp]
+20.3 +3.2 32 +20  1007.2  0.6  743  278           
12 21.07.17 310 (СЗ) 20000 м    4/3 1000 м средняя 
[Sc diur, vesp|Ac trans]
+13.7 +3.5 50 +14  1008  0.4  743  285    +20.9       
15 21.07.17 300 (СЗ) 20000 м    8/8 1000 м 
[Sc]
+8.1 +4.5 78 +8  1009.1  0.7  744  290           
18 21.07.17 тихо ()   20000 м    8/8 1000 м 
[Sc]
+7.9 +4.5 79 +8  1009.6  0.5  744  291           
21 21.07.17 180 (Ю) 20000 м    6/4 600 м средняя 
[Sc|Ac trans]
+9.1 +6.5 84 +9  1009.4  -0.1  744  289           
00 22.07.17 320 (СЗ) 20000 м    8/5 600 м средняя 
[Sc|Ac trans]
+15.4 +5.3 51 +16  1008.6  -0.4  744  283  +6.1        сухая 
03 22.07.17 310 (СЗ) 20000 м    8/8 600 м кучево-дожд. 
[Cb calv]
+17.8 +2.8 37 +18  1007.6  -0.9  743  281           
06 22.07.17 300 (СЗ) 20000 м    10/10 600 м кучево-дожд. 
[Cb calv]
+16.6 +1.9 37 +16  1007.7  743  282           
09 22.07.17 310 (СЗ) 3{11}  20000 м    8/8 600 м кучево-дожд. 
[Cb calv]
+15.3 +4.1 47 +16  1008  0.3  743  283           
12 22.07.17 150 (ЮВ) 20000 м    8/6 600 м кучево-дожд., средняя, верхняя 
[Cb calv|Ac trans|Ci fib]
+13.4 +5.8 60 +15  1008.1  743  284    +19.1       
15 22.07.17 240 (ЮЗ) 20000 м    6/4 600 м кучево-дожд., средняя, верхняя 
[Cb calv|Ac trans|Ci fib]
+8.6 +6.9 89 +9  1008.2  -0.2  743  289           
18 22.07.17 220 (ЮЗ) 20000 м    6/5 600 м кучево-дожд., средняя, верхняя 
[Cb calv|Ac trans|Ci fib]
+7.1 +5.3 88 +6  1008.3  743  291           
21 22.07.17 230 (ЮЗ) 20000 м    4/3 600 м кучево-дожд., средняя, верхняя 
[Cb calv|Ac trans|Ci fib]
+6.5 +4.4 86 +6  1008.4  743  292           
00 23.07.17 200 (Ю) 20000 м    10/3 600 м кучево-дожд., средняя, верхняя 
[Cb calv|Ac trans|Ci fib]
+16.3 +3.2 41 +16  1006.9  -0.9  742  282  +4.8        сухая 
03 23.07.17 290 (З) 20000 м    10/4 600 м кучево-дожд., средняя, верхняя 
[Cb calv|Ac trans|Ci fib]
+20.5 +2.3 30 +21  1005.5  -1.1  741  278           
06 23.07.17 050 (СВ) 20000 м    10/6 600 м кучево-дожд., средняя, верхняя 
[Cb calv|Ac trans|Ci fib]
+18.7 -1.9 25 +19  1005.3  -0.4  741  280           
09 23.07.17 310 (СЗ) 20000 м    10/5 600 м кучево-дожд., средняя, верхняя 
[Cb calv|Ac trans|Ci fib]
+19.9 +4.7 37 +21  1005.1  741  278           
12 23.07.17 090 (В) 20000 м    10/5 600 м кучево-дожд., средняя, верхняя 
[Cb calv|Ac trans|Ci fib]
+14.3 +9.9 75 +16  1006.2  0.7  742  282    +20.5       
15 23.07.17 300 (СЗ) 20000 м    10/3 600 м кучево-дожд., средняя, верхняя 
[Cb calv|Ac trans|Ci fib]
+8.2 +6.5 89 +8  1007.3  0.7  742  289           
18 23.07.17 тихо ()   20000 м    10/3 600 м кучево-дожд., средняя, верхняя 
[Cb calv|Ac trans|Ci fib]
+7.3 +6 91 +7  1007.5  0.2  742  290           
Время (UTC), дата Ветер
(°,м/с) 
Видим.   Явления Облачность Т
(°С)
Тd
(°С)
f(%) Тe
(°С)
Pmin
(гПа)
dP
(гПа)
Po
(мм)
O2
(г/м3)
Тmin Tmax R s Состояние
почвы

Для получения пояснительной информации подведите курсор к названию столбца.

ПОГОДА в Амге - архив

Всё, что Вы хотите узнать о погоде в Амге - удобно и подробно!

Выберите нужную дату (начиная с 1 января 2015* года) и нажмите кнопку "Найти".
Будут отображены архивные сводки погоды по пункту Амга, начиная с указанной даты.


Отображать данные в формате CSV (для использования в таблицах Excel)


Внимание! Наш архив погоды предназначен исключительно для личного некоммерческого использования в познавательных целях. Если Вам необходимы официальные справки о состоянии погоды (для производственных, юридических, коммерческих и т.п. целей), обращайтесь в органы Росгидромета.

*Примечание: данная дата относится к архиву по метеостанциям СССР (Россия, СНГ, Балтия).
Архив по метеостанциям Зарубежной Европы и Азии (кроме Китая) хранится 10 дней, по другим регионам земного шара (Китай, Африка, Америка, Австралия, Океания) - 1 день.

Амга - район местоположения метеостанции


Название, широта, долгота, высота метеостанции:
Амга 60.9°ш. 132°д. 146 м над ур. моря [Российская Федерация]

Дополнительная информация

В oтличие oт бoльшинства пoгoдных сайтoв мы публикуем пoдрoбную метеoинфoрмацию в детальнoм прoфессиoнальнoм фoрмате.

Характеристики температуры и влажнoсти вoздуха измеряются на высoте 2 м в тени вдали oт зданий и деревьев.
Скoрoсть ветра измеряется на высoте 10 м (на урoвне рoста челoвека скoрoсть ветра ниже в 1.5-2 раза). Если метеoстанция нахoдится в гoрoде или в лесу, тo скoрoсть ветра занижена на 2-4 м/с пo сравнению с oткрытым местoм. Скoрoсть ветра над акватoриями крупных рек и oзёр, а также на вершинах хoлмoв на 2-5 м/с выше, чем в oбычных услoвиях.
Атмoсфернoе давление в разных тoчках местнoсти мoжет значительнo oтличаться oт давления на метеoстанции, в зависимoсти oт услoвий рельефа (при пoдъёме на 10 м давление пoнижается примернo на 1 мм рт.ст.).